• In Netherlands
  • List of Countries
  • For 7 days
  • Water Temperature
  • Satellite Maps
  • Weather Map
  • Weather Widgets
  • user-avatar
    Login

    Hourly Weather Djelfa

    Today, 24 May, Thursday

    Time Temperature Precipitation Wind Pressure Humidity
    00:00 +21°C° 0 mm 6 mps 667 mmHg 33%
    01:00 +21°C° 0 mm 5 mps 666 mmHg 34%
    02:00 +20°C° 0 mm 5 mps 666 mmHg 35%
    03:00 +20°C° 0 mm 5 mps 666 mmHg 37%
    04:00 +20°C° 0 mm 5 mps 666 mmHg 37%
    05:00 +20°C° 0 mm 5 mps 666 mmHg 37%
    06:00 +20°C° 0 mm 4 mps 666 mmHg 35%
    07:00 +22°C° 0 mm 5 mps 667 mmHg 33%
    08:00 +23°C° 0 mm 6 mps 667 mmHg 30%
    09:00 +24°C° 0 mm 7 mps 668 mmHg 27%
    10:00 +27°C° 0 mm 8 mps 667 mmHg 25%
    11:00 +28°C° 0 mm 8 mps 667 mmHg 23%
    12:00 +29°C° 0 mm 9 mps 667 mmHg 22%
    13:00 +29°C° 0 mm 9 mps 667 mmHg 21%
    14:00 +29°C° 0 mm 9 mps 667 mmHg 20%
    15:00 +31°C° 0 mm 9 mps 666 mmHg 19%
    16:00 +29°C° 0 mm 9 mps 666 mmHg 19%
    17:00 +29°C° 0 mm 8 mps 666 mmHg 19%
    18:00 +28°C° 0 mm 8 mps 665 mmHg 20%
    19:00 +27°C° 0 mm 9 mps 665 mmHg 23%
    20:00 +26°C° 0 mm 9 mps 665 mmHg 25%
    21:00 +24°C° 0 mm 10 mps 665 mmHg 28%
    22:00 +23°C° 0 mm 9 mps 665 mmHg 30%
    23:00 +23°C° 0 mm 9 mps 665 mmHg 31%

    Tomorrow, 25 May, Friday

    Time Temperature Precipitation Wind Pressure Humidity
    00:00 +22°C° 0 mm 9 mps 665 mmHg 33%
    01:00 +21°C° 0 mm 9 mps 664 mmHg 33%
    02:00 +21°C° 0 mm 8 mps 664 mmHg 34%
    03:00 +21°C° 0 mm 8 mps 664 mmHg 35%
    04:00 +21°C° 0 mm 8 mps 664 mmHg 34%
    05:00 +21°C° 0 mm 9 mps 664 mmHg 33%
    06:00 +21°C° 0 mm 9 mps 664 mmHg 33%
    07:00 +22°C° 0 mm 9 mps 665 mmHg 30%
    08:00 +24°C° 0 mm 10 mps 665 mmHg 27%
    09:00 +27°C° 0 mm 11 mps 665 mmHg 24%
    10:00 +28°C° 0 mm 10 mps 665 mmHg 22%
    11:00 +29°C° 0 mm 10 mps 665 mmHg 19%
    12:00 +32°C° 0 mm 10 mps 665 mmHg 17%
    13:00 +33°C° 0 mm 10 mps 665 mmHg 15%
    14:00 +33°C° 0 mm 9 mps 665 mmHg 12%
    15:00 +34°C° 0 mm 9 mps 665 mmHg 10%
    16:00 +34°C° 0 mm 8 mps 665 mmHg 10%
    17:00 +33°C° 0 mm 7 mps 665 mmHg 11%
    18:00 +33°C° 0 mm 6 mps 664 mmHg 11%
    19:00 +30°C° 0 mm 5 mps 664 mmHg 16%
    20:00 +28°C° 0 mm 4 mps 664 mmHg 22%
    21:00 +26°C° 0 mm 3 mps 665 mmHg 27%
    22:00 +25°C° 0 mm 3 mps 664 mmHg 29%
    23:00 +24°C° 0 mm 3 mps 664 mmHg 31%

    Day after tomorrow, 26 May, Saturday

    Time Temperature Precipitation Wind Pressure Humidity
    00:00 +24°C° 0 mm 3 mps 664 mmHg 34%
    01:00 +22°C° 0 mm 3 mps 664 mmHg 34%
    02:00 +22°C° 0 mm 3 mps 664 mmHg 34%
    03:00 +21°C° 0 mm 2 mps 664 mmHg 34%
    04:00 +23°C° 0 mm 2 mps 664 mmHg 34%
    05:00 +23°C° 0 mm 2 mps 664 mmHg 35%
    06:00 +23°C° 0 mm 2 mps 664 mmHg 35%
    07:00 +25°C° 0 mm 3 mps 665 mmHg 31%
    08:00 +26°C° 0 mm 5 mps 665 mmHg 28%
    09:00 +28°C° 0 mm 6 mps 666 mmHg 25%
    10:00 +29°C° 0 mm 7 mps 666 mmHg 23%
    11:00 +31°C° 0 mm 8 mps 666 mmHg 21%
    12:00 +32°C° 0 mm 9 mps 667 mmHg 19%
    13:00 +32°C° 0 mm 9 mps 666 mmHg 21%
    14:00 +31°C° 0 mm 9 mps 666 mmHg 22%
    15:00 +31°C° 0 mm 9 mps 666 mmHg 23%
    16:00 +29°C° 0 mm 9 mps 666 mmHg 27%
    17:00 +28°C° 0 mm 9 mps 666 mmHg 31%
    18:00 +27°C° 0 mm 9 mps 666 mmHg 34%
    19:00 +26°C° 0.1 mm 8 mps 666 mmHg 39%
    20:00 +23°C° 0.1 mm 7 mps 666 mmHg 44%
    21:00 +22°C° 0.1 mm 7 mps 666 mmHg 48%
    22:00 +22°C° 0 mm 6 mps 666 mmHg 49%
    23:00 +22°C° 0 mm 4 mps 665 mmHg 50%

    27 May, Sunday

    Time Temperature Precipitation Wind Pressure Humidity
    00:00 +21°C° 0 mm 3 mps 665 mmHg 51%
    01:00 +21°C° 0 mm 3 mps 665 mmHg 53%
    02:00 +20°C° 0 mm 3 mps 664 mmHg 55%
    03:00 +20°C° 0 mm 2 mps 664 mmHg 57%
    04:00 +20°C° 0.1 mm 2 mps 664 mmHg 57%
    05:00 +21°C° 0.1 mm 1 mps 665 mmHg 56%
    06:00 +21°C° 0.1 mm 1 mps 665 mmHg 56%
    07:00 +23°C° 0.1 mm 1 mps 665 mmHg 49%
    08:00 +25°C° 0.1 mm 2 mps 666 mmHg 43%
    09:00 +26°C° 0.1 mm 2 mps 666 mmHg 37%
    10:00 +28°C° 0 mm 3 mps 666 mmHg 33%
    11:00 +30°C° 0 mm 4 mps 666 mmHg 28%
    12:00 +32°C° 0 mm 6 mps 666 mmHg 24%
    13:00 +33°C° 0 mm 6 mps 666 mmHg 24%
    14:00 +33°C° 0 mm 7 mps 665 mmHg 23%
    15:00 +33°C° 0 mm 8 mps 665 mmHg 22%
    16:00 +33°C° 0 mm 8 mps 664 mmHg 23%
    17:00 +32°C° 0 mm 8 mps 664 mmHg 23%
    18:00 +32°C° 0 mm 8 mps 663 mmHg 24%
    19:00 +29°C° 0 mm 8 mps 663 mmHg 26%
    20:00 +28°C° 0 mm 7 mps 664 mmHg 28%
    21:00 +27°C° 0 mm 7 mps 664 mmHg 29%
    22:00 +26°C° 0 mm 7 mps 663 mmHg 34%
    23:00 +24°C° 0 mm 6 mps 663 mmHg 39%

    28 May, Monday

    Time Temperature Precipitation Wind Pressure Humidity
    00:00 +22°C° 0 mm 6 mps 662 mmHg 43%
    01:00 +21°C° 0 mm 5 mps 662 mmHg 49%
    02:00 +20°C° 0 mm 4 mps 661 mmHg 54%
    03:00 +19°C° 0 mm 4 mps 661 mmHg 59%
    04:00 +19°C° 0 mm 3 mps 661 mmHg 61%
    05:00 +19°C° 0 mm 3 mps 661 mmHg 63%
    06:00 +19°C° 0 mm 3 mps 661 mmHg 64%
    07:00 +20°C° 0 mm 3 mps 662 mmHg 58%
    08:00 +21°C° 0 mm 3 mps 662 mmHg 52%
    09:00 +24°C° 0 mm 3 mps 663 mmHg 46%
    10:00 +25°C° 0 mm 3 mps 663 mmHg 42%
    11:00 +26°C° 0 mm 3 mps 663 mmHg 38%
    12:00 +28°C° 0 mm 3 mps 664 mmHg 34%
    13:00 +28°C° 0 mm 3 mps 663 mmHg 33%
    14:00 +29°C° 0 mm 4 mps 663 mmHg 31%
    15:00 +29°C° 0 mm 4 mps 663 mmHg 30%
    16:00 +28°C° 0 mm 5 mps 663 mmHg 36%
    17:00 +27°C° 0 mm 7 mps 663 mmHg 42%
    18:00 +24°C° 0 mm 8 mps 662 mmHg 49%
    19:00 +23°C° 0 mm 8 mps 663 mmHg 54%
    20:00 +22°C° 0 mm 8 mps 663 mmHg 59%
    21:00 +20°C° 0 mm 8 mps 663 mmHg 64%
    22:00 +20°C° 0 mm 8 mps 663 mmHg 67%
    23:00 +18°C° 0 mm 7 mps 663 mmHg 69%

    29 May, Tuesday

    Time Temperature Precipitation Wind Pressure Humidity
    00:00 +17°C° 0 mm 7 mps 663 mmHg 71%
    01:00 +17°C° 0 mm 7 mps 663 mmHg 73%
    02:00 +16°C° 0 mm 7 mps 662 mmHg 76%
    03:00 +16°C° 0 mm 6 mps 662 mmHg 78%
    04:00 +16°C° 0 mm 6 mps 662 mmHg 78%
    05:00 +15°C° 0 mm 6 mps 662 mmHg 78%
    06:00 +15°C° 0 mm 6 mps 662 mmHg 78%
    07:00 +17°C° 0 mm 6 mps 663 mmHg 69%
    08:00 +19°C° 0 mm 5 mps 663 mmHg 60%
    09:00 +21°C° 0 mm 5 mps 664 mmHg 51%
    10:00 +22°C° 0 mm 5 mps 664 mmHg 45%
    11:00 +25°C° 0 mm 5 mps 664 mmHg 38%
    12:00 +26°C° 0 mm 5 mps 664 mmHg 31%
    13:00 +27°C° 0 mm 5 mps 664 mmHg 28%
    14:00 +27°C° 0 mm 5 mps 664 mmHg 25%
    15:00 +28°C° 0 mm 5 mps 664 mmHg 22%
    16:00 +27°C° 0 mm 5 mps 664 mmHg 23%
    17:00 +27°C° 0 mm 5 mps 664 mmHg 25%
    18:00 +26°C° 0 mm 5 mps 664 mmHg 26%
    19:00 +25°C° 0 mm 5 mps 664 mmHg 33%
    20:00 +23°C° 0 mm 5 mps 664 mmHg 41%
    21:00 +22°C° 0 mm 5 mps 664 mmHg 48%
    22:00 +21°C° 0 mm 5 mps 664 mmHg 52%
    23:00 +20°C° 0 mm 5 mps 664 mmHg 55%
    Show more